#timestamp,LO_Frequency,Hit,StdDev 
1637758835.4,286047000.7,N
1637758855.2,286047000.7,P
1637758875.0,286046999.1,P
1637758875.9,286046999.1,N
1637758895.8,286046999.4,N
1637758915.6,286046999.3,N
1637758935.4,286046999.3,N
1637758955.3,286046999.5,N
1637758975.1,286046999.5,N
1637758995.9,286047000.9,N
1637759015.7,286046998.1,N
1637759035.5,286046998.8,N
1637759055.4,286046999.4,N
1637759075.2,286046998.1,N
1637759095.0,286047001.2,N
1637759095.9,286047001.2,N
1637759115.8,286046998.8,N
1637759135.6,286047000.8,N
1637759155.5,286046998.4,N
1637759175.3,286046998.8,N
1637759195.1,286046997.5,N
1637759215.9,286046997.0,N
1637759235.7,286046997.8,N
1637759255.5,286046995.4,Y
1637759275.4,286046999.5,P
1637759295.2,286046998.9,P
1637759315.1,286046998.7,P
1637759316.0,286046998.7,Y
1637759335.8,286047001.1,P
1637759355.6,286047001.6,N
1637759375.5,286046999.8,N
1637759395.3,286047002.4,N
1637759415.2,286047000.4,N
1637759435.9,286046999.9,N
1637759455.7,286047000.0,N
1637759475.6,286047000.6,N
1637759495.4,286047000.3,N
1637759515.3,286047000.5,N
1637759535.1,286047000.4,N
1637759536.0,286047000.4,N
1637759555.8,286047000.1,N
1637759575.7,286046999.7,N
1637759595.5,286047001.7,N
1637759615.3,286047001.4,N
1637759635.2,286047001.4,N
1637759655.0,286047001.6,N
1637759655.9,286047001.6,N
1637759675.8,286047004.2,Y
1637759695.6,286047002.3,P
1637759715.4,286047000.7,N
1637759735.3,286046999.7,N
1637759755.1,286047000.5,N
1637759775.9,286047000.4,N
1637759795.7,286047001.1,N
1637759815.5,286046999.8,N
1637759835.4,286047000.0,N
1637759855.2,286047000.1,N
1637759875.0,286047000.3,N
1637759876.0,286047000.3,N
1637759895.8,286047000.3,N
1637759915.6,286046998.1,Y
1637759935.5,286046998.3,P
1637759955.3,286047000.9,N
1637759975.1,286046998.2,N
1637759995.9,286046998.7,N
1637760015.7,286047001.0,N
1637760035.6,286047000.4,N
1637760055.4,286047000.2,N
1637760075.2,286046999.9,N
1637760095.1,286046999.7,N
1637760096.0,286046999.7,N
1637760115.8,286047000.1,N
1637760135.6,286047002.1,N
1637760155.5,286047002.5,N
1637760175.3,286047001.8,N
1637760195.2,286047002.7,N
1637760215.9,286047002.5,N
1637760235.7,286047001.8,N
1637760255.6,286047004.0,N
1637760275.4,286047003.5,N
1637760295.2,286047001.3,N
1637760315.1,286047001.5,N
1637760316.0,286047001.5,N
1637760335.8,286047002.5,N
1637760355.7,286047002.1,N
1637760375.5,286047002.3,N
1637760395.3,286047002.7,N
1637760415.2,286047001.8,N
1637760435.0,286047001.3,N
1637760435.9,286047001.3,N
1637760455.7,286047002.0,N
1637760475.6,286047002.0,N
1637760495.4,286047001.6,N
1637760515.3,286047001.3,N
1637760535.1,286047004.1,Y
1637760536.0,286047004.1,P
1637760555.8,286047002.7,N
1637760575.7,286047002.3,N
1637760595.5,286047002.2,N
1637760615.3,286047001.6,N
1637760635.2,286047001.6,N
1637760655.0,286047002.0,N
1637760655.9,286047002.0,N
1637760675.8,286047001.6,N
1637760695.6,286047001.9,N
1637760715.4,286047002.0,N
1637760735.3,286047001.7,N
1637760755.1,286047003.8,Y
1637760775.9,286047002.8,P
1637760795.7,286047002.4,P
1637760815.5,286047002.3,P
1637760835.4,286047001.0,Y
1637760855.2,286046996.8,P
1637760875.0,286046999.1,N
1637760875.9,286046999.1,N
1637760895.8,286046996.6,N
1637760915.6,286046997.1,N
1637760935.5,286046994.9,N
1637760955.3,286046994.9,N
1637760975.1,286046995.1,N
1637760995.9,286046995.4,N
1637761015.7,286046997.5,N
1637761035.5,286046997.2,N
1637761055.4,286046997.3,N
1637761075.2,286046997.6,N
1637761095.1,286046997.4,N
1637761096.0,286046997.4,N
1637761115.8,286046997.7,N
1637761135.6,286046996.9,N
1637761155.5,286046997.1,N
1637761175.3,286046997.0,N
1637761195.1,286046997.8,N
1637761215.9,286046994.9,Y
1637761235.7,286046999.8,P
1637761255.6,286047000.3,N
1637761275.4,286047002.7,N
1637761295.2,286047002.4,N
1637761315.1,286047000.2,N
1637761316.0,286047000.2,N
1637761335.8,286047000.0,N
1637761355.7,286046999.9,N
1637761375.5,286047011.9,Y
1637761395.3,286047000.5,P
1637761415.2,286047000.5,P
1637761435.0,286047000.9,P
1637761435.9,286047000.9,Y
1637761455.8,286047000.5,P
1637761475.6,286046999.8,P
1637761495.4,286047002.6,P
1637761515.3,286047001.5,N
1637761535.1,286047001.9,N
1637761555.8,286047000.2,N
1637761575.7,286047001.0,N
1637761595.5,286046998.2,N
1637761615.4,286046998.6,N
1637761635.2,286046998.9,N
1637761655.0,286047000.4,N
1637761655.9,286047000.4,N
1637761675.8,286047000.2,N
1637761695.6,286047000.6,N
1637761715.4,286047000.8,N
1637761735.3,286047000.6,N
1637761755.1,286046998.3,N
1637761775.9,286046998.7,N
1637761795.7,286047000.0,N
1637761815.5,286047001.2,N
1637761835.4,286047000.7,N
1637761855.2,286046999.2,N
1637761875.0,286046998.1,N
1637761875.9,286046998.1,N
1637761895.8,286047000.7,N
1637761915.6,286047000.3,N
1637761935.5,286046998.2,N
1637761955.3,286047000.7,N
1637761975.1,286047001.2,N
1637761995.9,286047000.6,N
1637762015.7,286047000.9,N
1637762035.6,286047000.5,N
1637762055.4,286047000.0,N
1637762075.2,286047001.1,N
1637762095.1,286047001.1,N
1637762096.0,286047001.1,N
1637762115.8,286047000.5,N
1637762135.7,286046998.2,N
1637762155.5,286047001.0,N
1637762175.3,286046998.3,N
1637762195.2,286046998.4,N
1637762215.0,286046998.9,N
1637762215.9,286046998.9,N
1637762235.7,286047000.5,N
1637762255.6,286047000.8,N
1637762275.4,286046999.9,N
1637762295.3,286047000.5,N
1637762315.1,286047000.6,N
1637762316.0,286047000.6,N
1637762335.8,286047000.9,N
1637762355.7,286047000.4,N
1637762375.5,286047000.9,N
1637762395.3,286047000.3,N
